Weather History for Morgantown, WV

Change the Weather History Date:

Saturday, February 26, 2005

  Actual Average Record
Temperature  
Mean Temperature 32 °F 36 °F  
Max Temperature 37 °F 46 °F 77 °F (2000)
Min Temperature 26 °F 27 °F -5 °F (1963)
Degree Days  
Heating Degree Days 33 28  
Month to date heating degree days 806  
Since 1 July heating degree days 3833  
Cooling Degree Days 0 0  
Month to date cooling degree days 0  
Year to date cooling degree days 0  
Moisture  
Dew Point 24 °F    
Average Humidity 76    
Maximum Humidity 88    
Minimum Humidity 53    
Precipitation  
Precipitation 0.01 in 0.10 in 0.69 in (1961)
Month to date precipitation 2.40  
Year to date precipitation 5.21  
Sea Level Pressure  
Sea Level Pressure 30.23 in    
Wind  
Wind Speed 6 mph (WSW)    
Max Wind Speed 8 mph    
Max Gust Speed -    
Visibility 7 miles    
Events Snow    
T = Trace of Precipitation, MM = Missing Value Source: NWS Daily Summary

Daily Weather History Graph

Daily Weather History Graph

Search for Another Location

Airport:

Trip Planner

Search our weather history database for the weather conditions in past years. The results will help you decide how hot, cold, wet, or windy it might be!

Date:

Astronomy

Feb. 26, 2005 Rise Set
Actual Time 6:56 AM EST 6:08 PM EST
Civil Twilight 6:29 AM EST 6:35 PM EST
Nautical Twilight 5:58 AM EST 7:07 PM EST
Astronomical Twilight 5:27 AM EST 7:38 PM EST
Moon 8:48 PM EST (2/26) 8:12 AM EST (2/26)
Length of Visible Light 12h 06m
Length of Day
11h 11m
Waning Gibbous, 94% of the Moon is Illuminated
Feb 26
Waning Gibbous
Mar 3
Last Quarter
Mar 10
New
Mar 17
First Quarter
Mar 25
Full

Hourly Weather History & Observations

Time (EST) Temp. Windchill Dew Point Humidity Pressure Visibility Wind Dir Wind Speed Gust Speed Precip Events Conditions
12:53 AM 27.0 °F 20.5 °F 19.9 °F 75% 30.17 in 10.0 mi SSW 5.8 mph - N/A   Mostly Cloudy
1:53 AM 28.0 °F 20.8 °F 19.9 °F 72% 30.16 in 10.0 mi SSW 6.9 mph - N/A   Overcast
2:53 AM 28.0 °F 20.8 °F 21.0 °F 75% 30.17 in 10.0 mi SW 6.9 mph - N/A   Overcast
3:53 AM 28.9 °F 21.1 °F 21.9 °F 75% 30.17 in 10.0 mi SSW 8.1 mph - N/A   Overcast
4:53 AM 28.9 °F 22.8 °F 23.0 °F 78% 30.18 in 10.0 mi SW 5.8 mph - N/A   Overcast
5:53 AM 30.0 °F 24.1 °F 25.0 °F 82% 30.19 in 10.0 mi SW 5.8 mph - N/A   Overcast
6:35 AM 30.2 °F 23.4 °F 24.8 °F 80% 30.15 in 10.0 mi SSW 6.9 mph - N/A   Overcast
7:42 AM 30.2 °F 23.4 °F 26.6 °F 86% 30.17 in 4.0 mi SW 6.9 mph - 0.00 in Snow Light Snow
7:53 AM 30.0 °F 25.2 °F 26.1 °F 85% 30.22 in 4.0 mi Variable 4.6 mph - 0.00 in Snow Light Snow
8:30 AM 30.2 °F 24.3 °F 26.6 °F 86% 30.19 in 3.0 mi SW 5.8 mph - 0.00 in Snow Light Snow
8:36 AM 30.2 °F 24.3 °F 26.6 °F 86% 30.20 in 2.5 mi WSW 5.8 mph - 0.00 in Snow Light Snow
8:53 AM 30.0 °F 24.1 °F 27.0 °F 88% 30.24 in 1.2 mi Variable 5.8 mph - 0.00 in Snow Light Snow
8:59 AM 30.2 °F 25.4 °F 26.6 °F 86% 30.20 in 4.0 mi Variable 4.6 mph - 0.00 in Snow Light Snow
9:20 AM 30.2 °F 24.3 °F 26.6 °F 86% 30.20 in 1.2 mi SSW 5.8 mph - 0.00 in Snow Light Snow
9:36 AM 30.2 °F 26.7 °F 26.6 °F 86% 30.21 in 4.0 mi Variable 3.5 mph - 0.00 in Snow Light Snow
9:53 AM 30.0 °F 24.1 °F 27.0 °F 88% 30.25 in 1.5 mi Variable 5.8 mph - 0.01 in Snow Light Snow
10:11 AM 30.2 °F 24.3 °F 26.6 °F 86% 30.21 in 2.0 mi Variable 5.8 mph - 0.00 in Snow Light Snow
10:28 AM 30.2 °F 26.7 °F 26.6 °F 86% 30.21 in 3.0 mi Variable 3.5 mph - 0.00 in Snow Light Snow
10:53 AM 32.0 °F 27.5 °F 28.0 °F 85% 30.26 in 3.0 mi Variable 4.6 mph - 0.00 in Snow Light Snow
11:02 AM 30.2 °F 25.4 °F 26.6 °F 86% 30.22 in 2.0 mi SW 4.6 mph - 0.00 in Snow Light Snow
11:53 AM 33.1 °F 28.7 °F 28.9 °F 85% 30.26 in 4.0 mi SW 4.6 mph - 0.00 in Snow Light Snow
12:00 PM 33.8 °F 29.6 °F 28.4 °F 81% 30.21 in 5.0 mi West 4.6 mph - 0.00 in Snow Light Snow
12:53 PM 34.0 °F 31.0 °F 28.0 °F 79% 30.25 in 5.0 mi Variable 3.5 mph - 0.00 in Snow Light Snow
1:53 PM 36.0 °F 29.6 °F 28.0 °F 73% 30.23 in 10.0 mi WSW 8.1 mph - 0.00 in   Mostly Cloudy
2:00 PM 35.6 °F 29.9 °F 26.6 °F 70% 30.19 in 10.0 mi Variable 6.9 mph - N/A   Mostly Cloudy
2:53 PM 36.0 °F - 28.0 °F 73% 30.23 in 10.0 mi Calm Calm - N/A   Overcast
3:24 PM 35.6 °F 31.7 °F 28.4 °F 75% 30.20 in 10.0 mi SW 4.6 mph - N/A   Overcast
3:53 PM 37.0 °F 33.3 °F 27.0 °F 67% 30.24 in 10.0 mi West 4.6 mph - N/A   Overcast
4:53 PM 37.0 °F 33.3 °F 26.1 °F 65% 30.25 in 10.0 mi Variable 4.6 mph - N/A   Overcast
5:53 PM 37.0 °F 33.3 °F 24.1 °F 59% 30.27 in 10.0 mi West 4.6 mph - N/A   Scattered Clouds
6:53 PM 35.1 °F 32.2 °F 21.9 °F 59% 30.28 in 10.0 mi Variable 3.5 mph - N/A   Mostly Cloudy
7:53 PM 33.1 °F 30.0 °F 19.9 °F 59% 30.30 in 10.0 mi Variable 3.5 mph - N/A   Clear
8:53 PM 30.9 °F 26.2 °F 19.0 °F 61% 30.29 in 10.0 mi NNW 4.6 mph - N/A   Clear
9:53 PM 28.9 °F 23.9 °F 17.1 °F 61% 30.32 in 10.0 mi North 4.6 mph - N/A   Clear
10:53 PM 27.0 °F 21.6 °F 15.1 °F 61% 30.33 in 10.0 mi North 4.6 mph - N/A   Clear
11:53 PM 26.1 °F 19.4 °F 10.9 °F 53% 30.33 in 10.0 mi North 5.8 mph - N/A   Clear